INTELSAT 34 (IS-34)

Last updated on Sun Jun 21 2026 00:03:06 GMT+0000 (Coordinated Universal Time)

1 40874U 15039A 26170.95331588 -.00000291 00000+0 00000+0 0 9990 2 40874 0.0091 6.4511 0001908 313.7582 235.6766 1.00300971 39669
UTC large
Height (km)
Speed (km/s)
/
Latitude / Longitude
Inclination (degrees)
Orbital Period (minutes)
Azimuth
Elevation
Range (km)
Doppler Factor

Next 0 passes for location: London (51.5072 / 0.1276)

No passes found over London.
INTELSAT 34 (IS-34)